Presure
148 102 298 238 248 243 195 130 150 136 131 155 127 134 138 115 101 139 139 146 121 130 121 131 131 123 105 123 111 110 135 109 122 138 89 112 134 131 104 144 115 126 132 134 90 106 95 134 120
328 307 278 234 111 240 250 136 131 127 125 157 128 117 112 107 126 149 122 125 131 131 130 148 127 125 113 104 114 122 118 133 122 102 104 120 127 129 142 90 138 107 131 144 143 127 127 117 129
324 308 109 99 318 260 189 250 254 236 166 141 125 116 141 123 139 135 158 124 123 131 122 127 117 136 136 132 125 131 92 113 98 135 140 136 142 136 139 134 123 120 140 147 129 115 134 118 134
289 99 218 222 107 313 229 117 242 121 191 132 116 144 147 133 109 107 164 163 123 129 129 136 135 100 83 123 107 89 119 134 102 127 143 148 131 130 137 122 149 108 137 113 110 87 130 134 107
317 296 275 147 322 303 309 300 242 160 119 228 121 123 124 132 141 133 162 161 117 139 110 127 131 87 132 99 97 107 128 101 129 135 117 144 140 118 143 111 133 151 132 110 110 140 132 122 129
314 292 265 278 302 305 254 293 224 169 133 237 132 194 119 140 160 100 125 112 123 120 128 120 109 106 117 134 114 103 125 107 134 146 137 129 112 109 128 122 149 134 121 130 136 133 118 118 117
263 274 216 257 299 292 300 279 290 229 222 112 125 131 143 126 125 143 146 149 134 152 138 120 111 116 137 124 127 103 143 117 155 126 109 127 131 118 109 159 119 111 138 120 127 123 120 111 134
294 263 249 255 285 295 188 279 290 298 275 140 250 127 146 138 105 141 125 148 165 102 110 133 111 136 80 143 137 142 151 155 117 130 145 121 126 143 119 115 137 125 121 117 121 132 131 127 133
280 257 187 253 281 279 273 275 273 132 276 211 178 200 129 130 125 140 138 150 160 145 133 141 140 141 114 143 141 130 134 123 118 108 124 119 110 120 118 119 124 124 125 121 128 135 128 132 136
269 248 254 254 287 272 270 255 216 181 275 197 259 147 149 126 121 131 144 257 202 133 121 142 113 134 118 123 108 133 110 116 116 109 107 124 112 115 119 118 116 119 129 126 132 123 135 193 198
248 251 247 285 153 266 269 251 152 254 227 225 213 143 206 181 139 147 149 143 143 135 131 139 138 137 115 138 131 114 129 141 113 115 124 144 126 117 120 117 123 122 129 130 132 133 206 205 205
262 272 272 268 260 270 148 257 245 229 124 150 236 262 214 243 131 140 128 130 147 104 132 165 145 123 132 126 122 119 147 141 120 137 120 121 120 125 126 126 128 135 133 117 217 198 213 196 201
259 272 279 198 254 246 249 233 247 227 202 255 232 228 230 195 128 163 152 149 147 151 171 153 118 123 139 129 143 132 127 117 140 121 118 124 122 129 126 127 167 133 142 185 192 222 209 208 200
254 258 261 249 238 232 217 238 229 231 115 240 246 201 224 206 149 200 147 125 136 167 124 121 146 150 123 123 133 120 116 123 119 120 124 127 129 132 130 139 132 170 121 202 200 191 202 216 194
247 257 250 233 230 243 223 235 234 112 176 124 145 130 216 223 242 130 143 148 231 123 134 141 169 120 124 141 133 110 121 118 125 124 129 132 139 126 131 131 147 198 191 188 215 203 191 196 193
244 248 242 227 231 227 245 237 241 147 146 230 247 252 231 215 159 187 137 209 146 151 144 124 115 120 118 118 117 119 121 124 119 126 129 127 142 156 218 217 195 208 199 197 200 180 191 196 194
237 242 238 244 239 235 237 225 185 232 232 220 232 233 165 234 183 139 174 229 193 126 114 120 170 115 117 122 124 134 122 119 126 125 138 143 210 134 177 205 194 220 193 190 189 191 197 223 228
234 230 236 237 228 228 241 164 230 224 221 214 232 214 142 217 201 222 222 162 151 138 200 199 164 124 133 123 131 124 122 123 126 132 134 198 202 197 173 191 191 190 190 221 220 222 218 228 217
244 225 235 240 245 244 241 235 227 220 218 234 213 147 206 217 212 144 181 144 149 123 117 144 141 118 116 119 126 127 129 132 134 171 146 204 195 194 195 194 195 209 222 216 222 221 209 202 203
235 226 222 232 209 237 238 240 233 215 200 215 223 219 205 206 128 181 208 129 119 176 141 119 126 125 138 132 125 127 130 196 189 134 206 205 213 228 229 223 217 216 224 211 204 201 197 205 203
236 227 226 219 218 231 223 219 227 232 207 222 128 217 199 164 157 195 175 207 198 166 167 203 139 132 129 140 143 179 202 210 204 225 225 223 219 215 212 220 218 206 206 197 204 195 202 212 223
246 236 237 225 223 224 223 226 222 211 213 220 211 212 123 142 121 129 130 126 199 129 134 194 210 211 217 216 225 241 230 194 215 213 215 214 223 218 209 205 199 199 204 197 198 210 211 202 200
232 234 230 243 227 241 221 217 220 227 223 225 218 179 130 127 223 225 224 225 226 223 220 218 226 227 213 197 227 228 220 216 215 233 224 206 205 203 195 203 205 200 196 199 213 195 203 200 196
234 235 240 224 214 221 226 220 222 227 224 217 218 220 221 213 225 227 219 217 218 212 219 216 212 209 214 213 214 223 240 226 226 221 205 197 195 203 202 202 196 196 213 208 195 201 194 196 193
241 239 240 244 212 205 215 215 214 213 211 212 215 213 217 222 212 211 210 210 213 229 225 224 209 140 164 207 220 226 225 218 210 206 203 203 203 199 197 194 202 210 200 197 196 194 194 192 204
216 237 243 240 230 218 217 219 212 212 214 208 216 211 209 202 220 221 225 224 210 210 135 120 120 124 126 208 228 218 202 210 211 205 201 203 200 193 192 206 204 192 193 195 197 189 192 205 203
209 217 233 239 237 227 223 220 229 214 214 207 212 202 218 219 213 214 208 201 119 124 123 141 124 204 207 214 201 199 198 206 200 200 199 190 190 194 204 205 191 190 194 198 184 207 206 192 224
220 218 202 222 236 233 231 229 223 221 219 219 218 218 212 202 196 207 205 122 212 199 161 204 218 215 206 196 193 193 197 194 194 190 184 191 194 201 185 183 188 187 190 183 201 210 198 228 229
211 213 203 210 221 221 223 214 220 225 225 219 214 202 205 199 143 208 182 222 142 215 229 217 209 198 191 188 193 201 193 194 185 184 187 190 200 203 202 195 192 192 187 204 208 220 224 233 251
216 198 205 212 204 205 208 221 218 210 213 212 208 210 207 209 210 208 215 213 218 219 209 209 200 197 202 204 198 194 193 190 188 190 196 199 202 190 194 187 196 194 205 202 220 217 228 252 224
Wind_Speed
54 47 40 56 55 54 65 62 71 65 63 69 57 61 62 48 29 59 66 63 47 57 52 59 62 61 46 61 42 34 56 39 39 61 33 44 50 46 44 67 50 58 66 66 43 50 45 67 53
37 35 42 51 39 55 58 63 55 59 60 70 55 54 46 49 58 67 53 52 60 57 56 62 62 63 50 44 42 42 38 50 43 41 41 44 38 43 70 40 63 49 63 71 75 56 57 54 62
35 35 40 31 27 34 52 58 55 56 53 68 56 49 63 57 64 59 65 49 53 60 52 59 55 70 69 55 47 53 34 49 35 63 66 57 64 64 70 56 43 45 66 73 57 51 62 52 65
33 28 31 39 34 31 51 36 54 48 55 63 41 67 65 57 52 47 71 67 51 59 62 71 71 28 26 41 37 31 43 57 37 45 67 75 47 54 56 40 73 53 60 52 55 47 55 63 73
31 28 30 37 23 26 28 40 53 62 44 58 47 51 52 56 66 56 70 69 46 62 48 69 65 30 55 30 33 39 40 33 57 52 40 65 62 43 71 48 51 73 49 60 58 79 63 58 64
28 23 26 27 19 21 32 32 51 62 59 53 59 62 47 59 72 41 52 47 57 57 67 56 45 39 46 51 42 36 56 38 56 67 52 42 44 43 45 45 72 57 50 63 66 64 63 66 72
24 19 30 27 18 22 26 32 30 49 50 50 50 53 62 41 36 55 63 71 65 73 69 58 48 53 60 43 44 41 51 45 77 43 42 45 48 45 47 78 53 51 61 57 56 61 64 70 80
21 18 22 23 15 15 30 23 23 25 37 62 48 52 66 54 48 52 50 72 78 37 55 66 44 68 30 65 54 56 76 79 46 45 67 48 46 71 49 55 62 58 59 59 59 70 69 68 78
15 17 27 21 12 15 25 20 23 44 32 34 56 50 33 35 37 59 58 71 77 71 62 73 75 71 48 57 57 41 41 54 46 46 47 49 49 54 53 56 60 64 63 65 67 74 69 80 87
13 17 21 18 13 18 23 26 28 37 28 45 38 41 38 48 44 50 65 31 61 59 52 70 41 61 53 55 42 52 46 48 47 48 53 57 53 53 54 58 60 63 66 63 73 64 81 87 83
10 19 20 11 36 19 19 24 36 21 32 44 44 31 34 61 54 65 70 61 62 58 62 68 65 58 54 57 41 49 47 56 49 51 50 66 54 58 57 59 63 60 69 71 73 74 87 83 82
7 9 10 18 17 11 34 24 28 36 39 35 38 28 38 28 50 58 52 49 62 36 46 84 70 52 43 47 50 51 78 68 51 55 56 58 58 59 62 64 65 77 73 58 89 87 91 85 88
5 6 11 18 19 25 30 36 28 38 37 31 34 30 28 34 53 50 67 62 57 68 64 74 56 56 52 48 69 59 52 54 73 54 59 60 64 64 64 67 87 76 90 83 87 96 92 93 89
3 9 17 27 24 31 31 34 37 33 46 30 37 38 30 36 63 41 43 48 50 40 53 55 72 77 52 52 65 55 54 56 56 60 62 65 67 75 70 86 73 82 61 89 90 89 92 99 91
4 13 20 24 27 31 31 32 31 44 36 47 43 43 32 33 39 42 55 59 60 53 52 57 71 54 51 66 55 52 60 58 60 62 68 75 86 69 77 75 93 85 83 86 94 98 89 97 95
7 10 18 23 25 27 22 30 25 39 39 22 23 29 36 38 44 45 46 52 58 67 60 51 53 54 56 56 58 60 62 62 62 66 71 70 94 96 81 83 81 87 88 91 94 88 92 97 99
9 8 13 14 20 21 20 25 29 23 21 29 27 36 44 36 42 42 48 52 49 49 44 52 54 58 60 61 60 68 63 65 67 70 87 85 85 79 85 80 82 80 89 90 92 96 102 92 82
9 9 10 15 20 21 18 18 25 26 28 32 33 36 43 39 43 49 48 46 53 46 51 45 63 61 64 62 64 63 67 69 72 81 85 74 74 78 76 82 86 87 90 85 89 81 83 78 79
10 10 10 13 17 20 24 22 28 26 28 28 36 27 37 37 42 40 42 46 56 52 55 61 64 62 61 64 65 68 72 81 85 77 91 75 76 80 84 87 93 91 76 78 75 73 75 80 82
11 11 10 12 13 14 18 16 29 25 32 32 33 38 38 40 47 41 47 46 48 50 59 57 62 62 65 66 66 68 73 63 70 79 81 82 79 69 66 69 74 73 68 69 74 77 80 81 83
13 11 13 15 12 14 18 17 24 28 31 35 37 32 40 39 38 47 47 48 47 51 54 52 62 63 64 72 79 73 64 65 63 64 63 63 64 66 68 65 63 68 69 74 74 79 82 86 85
12 11 17 17 18 18 20 21 25 28 30 35 32 33 41 41 42 48 52 52 50 56 58 61 62 61 63 65 64 57 64 60 61 60 62 63 59 59 60 63 68 70 70 74 76 80 82 85 86
13 13 12 17 13 22 22 21 22 28 32 35 34 37 48 47 39 40 42 43 44 44 47 49 52 54 51 56 52 51 55 56 56 55 54 56 56 59 65 64 65 68 72 76 78 77 83 85 87
17 16 14 17 17 15 19 23 24 23 25 27 28 30 30 34 36 38 38 39 40 40 43 45 46 48 52 51 54 47 43 50 49 48 49 56 62 58 62 64 68 71 76 76 78 82 82 87 91
19 16 17 19 23 22 19 21 21 23 26 25 28 29 31 34 35 35 36 36 38 41 39 38 43 53 54 49 47 47 46 46 47 49 53 55 58 61 64 68 74 75 76 79 82 85 88 91 99
23 16 18 21 23 22 21 23 23 24 25 28 31 30 32 35 39 36 33 31 36 38 49 54 57 62 66 44 39 46 51 50 49 50 55 58 60 64 69 74 72 76 79 83 86 85 91 98 100
21 19 14 19 25 25 24 24 27 26 28 31 33 34 32 30 31 32 32 36 42 48 52 53 61 38 39 38 45 49 55 51 52 55 57 61 65 70 72 72 76 79 83 87 83 95 98 95 97
21 19 21 16 20 24 26 24 28 28 29 28 30 30 30 32 35 36 38 45 39 42 47 38 36 39 39 44 49 55 53 53 55 59 62 66 71 74 72 75 79 80 84 84 95 97 96 98 98
21 22 23 20 20 21 21 23 26 28 26 25 28 30 32 38 35 36 39 37 50 37 28 32 35 38 44 48 53 54 56 54 57 62 67 71 74 75 76 79 82 85 86 94 97 96 98 101 100
23 20 22 26 25 23 22 28 27 28 27 29 31 32 33 36 36 37 37 36 33 32 35 35 39 44 45 47 51 53 57 58 61 64 69 72 75 76 81 82 89 92 96 95 96 98 102 101 101
Wind_Direction
281 266 263 258 253 248 253 256 254 249 256 246 257 252 251 248 255 247 248 243 254 252 254 254 251 254 258 257 263 276 268 274 281 272 282 276 288 280 281 276 285 286 284 288 283 286 291 291 289
269 262 262 256 262 249 246 254 256 252 255 242 256 254 252 251 250 244 253 249 253 253 253 239 252 252 256 260 266 271 275 271 281 281 292 287 290 292 284 290 284 282 288 278 282 287 291 288 290
261 260 261 252 248 245 247 243 239 240 249 243 250 252 245 248 246 248 247 254 256 252 251 250 249 249 253 262 265 271 272 271 281 281 284 291 287 287 285 287 287 289 284 282 285 288 287 285 289
252 259 263 261 263 239 244 251 236 248 242 248 238 244 239 248 251 254 243 242 249 250 250 248 252 270 254 265 261 267 271 278 279 287 283 282 293 273 293 280 285 287 288 280 278 290 292 289 284
246 254 263 271 241 244 234 234 234 240 238 238 243 248 243 245 244 247 241 237 251 244 260 251 255 268 260 266 270 273 280 279 276 285 283 282 284 275 281 277 291 283 289 284 284 284 294 283 292
239 248 264 266 246 223 236 236 233 239 242 235 241 235 244 246 238 261 253 252 248 247 249 255 270 277 271 268 273 277 274 274 278 285 286 286 282 277 286 279 284 291 280 278 289 290 277 276 275
241 252 260 265 233 240 219 226 228 229 231 233 247 247 242 243 247 247 248 242 246 239 249 258 269 267 263 271 275 280 275 274 272 283 280 279 285 282 282 280 281 278 296 279 284 278 274 276 295
228 252 263 266 250 236 230 225 224 218 217 237 230 246 242 249 254 251 246 245 238 267 263 254 272 262 267 268 273 280 273 277 279 288 290 285 288 295 284 281 297 287 282 281 285 296 289 283 293
242 255 258 261 246 191 196 209 206 239 210 224 233 234 234 234 235 253 248 240 239 245 253 249 253 259 272 272 274 278 288 283 276 285 283 284 283 287 283 284 290 284 289 286 293 297 289 294 292
256 269 262 261 204 187 193 194 229 223 190 227 209 242 234 244 236 243 244 215 229 251 259 251 266 264 273 270 277 283 275 275 277 282 285 284 283 284 284 284 282 283 292 289 296 284 295 296 299
279 265 264 221 247 179 183 183 234 185 208 217 226 234 234 232 243 246 242 247 249 252 252 257 260 269 273 274 275 276 274 289 274 277 276 290 278 277 278 278 284 282 295 293 292 292 295 297 300
291 249 228 180 168 171 241 155 181 199 235 241 218 211 225 219 238 247 241 246 252 270 258 246 258 271 272 272 273 273 278 286 280 290 280 283 282 286 287 287 289 296 293 281 292 296 293 299 301
101 95 153 201 157 159 162 190 175 201 211 206 216 224 218 229 245 244 244 251 258 253 247 253 262 268 274 275 274 280 281 282 283 286 288 289 290 290 288 290 291 294 295 289 294 291 292 291 299
71 110 150 153 159 177 192 186 203 211 242 205 208 226 217 227 245 222 244 249 252 244 251 257 263 263 266 269 278 283 282 284 286 286 289 290 293 295 293 296 293 292 290 287 291 296 298 297 301
156 126 152 179 181 183 193 189 199 244 225 237 237 244 217 217 199 243 249 256 209 252 256 265 256 264 268 274 281 285 281 285 288 291 292 296 295 290 292 293 294 287 293 293 287 290 300 300 300
242 156 161 195 186 196 181 192 197 236 239 211 208 202 210 221 233 230 250 219 255 253 261 258 270 268 273 275 278 279 284 286 286 290 292 291 290 287 277 280 286 286 290 293 293 297 299 297 296
249 244 200 184 191 204 188 199 222 202 193 198 196 197 235 208 227 248 238 221 250 254 267 266 251 274 274 275 278 281 284 285 289 290 293 291 272 293 285 283 291 289 292 294 296 295 293 291 295
254 259 256 210 200 219 201 229 205 201 195 200 199 209 239 215 226 227 229 251 258 256 253 250 263 269 276 278 281 282 283 285 287 288 290 277 284 288 290 291 291 290 292 290 289 291 293 297 295
257 264 263 245 232 220 229 207 213 208 209 218 209 247 225 226 227 252 251 259 260 255 262 267 268 275 281 281 280 282 285 285 286 283 285 281 284 285 283 283 284 285 288 289 293 296 294 294 296
268 257 259 257 205 230 230 220 216 217 221 221 224 220 231 232 252 247 244 256 267 260 264 272 267 272 275 277 278 281 282 277 280 287 279 281 282 283 282 283 285 288 293 293 293 295 294 297 297
258 270 250 262 265 255 241 237 223 217 229 231 256 234 235 247 260 245 256 257 260 263 266 269 269 270 273 274 276 275 275 278 280 283 283 282 282 283 285 289 290 290 293 291 296 294 300 302 303
275 275 265 259 258 254 242 237 233 236 238 240 237 239 264 261 270 260 260 264 258 265 264 262 264 267 269 271 278 280 278 280 282 283 284 285 286 288 289 287 287 289 295 293 298 302 302 303 304
287 273 266 259 245 237 234 235 232 233 242 251 254 251 259 264 247 248 249 254 257 260 263 265 267 270 271 275 278 279 278 279 281 278 281 284 284 284 284 290 294 293 295 298 301 302 302 303 302
278 265 250 236 235 238 240 243 247 245 240 240 250 255 256 252 261 260 257 259 259 261 268 266 268 269 270 275 277 281 274 277 275 277 275 276 280 286 288 293 293 297 300 301 301 302 302 302 303
279 268 255 233 243 245 240 243 242 247 253 257 259 258 267 264 260 260 263 266 267 267 267 262 263 286 283 277 280 279 281 284 281 278 282 283 287 289 295 298 301 302 303 304 303 303 304 303 303
304 281 253 237 240 247 243 249 245 251 257 259 265 261 260 269 269 269 272 265 266 265 287 294 296 292 290 282 272 284 287 290 293 291 291 296 298 300 301 301 301 302 304 302 302 301 303 302 302
302 297 275 247 237 248 250 252 257 240 247 257 260 269 274 275 270 273 268 268 291 287 288 287 292 278 285 282 285 285 285 292 294 296 299 299 302 300 299 300 301 301 301 305 301 303 302 302 305
292 280 286 269 250 250 250 246 248 248 251 255 259 263 265 268 267 267 270 291 272 276 286 276 278 282 280 282 284 285 288 293 296 299 301 301 300 299 300 300 300 302 304 303 304 303 302 307 308
277 275 288 284 256 264 251 248 255 255 255 254 252 254 257 263 287 272 277 271 286 272 270 275 275 279 282 284 280 283 290 294 295 297 300 299 297 298 297 298 302 304 305 303 303 305 309 311 311
276 281 286 278 282 273 273 262 255 265 259 257 257 261 260 263 268 272 272 271 270 264 271 272 274 273 277 279 282 290 293 295 296 297 296 297 299 299 302 306 304 304 303 303 307 310 313 312 311